Temp
-11 -10 -10 -10 -10 -10 -10 -10 -10 -10 -10 -9 -9 -10 -10 -11 -11 -11 -11 -11 -11 -11 -11 -11 -11 -11 -11 -11 -11 -11 -11 -11 -11 -10 -11 -10 -10 -10 -10 -10 -10 -10 -10
-11 -11 -10 -10 -10 -11 -11 -11 -11 -10 -11 -10 -10 -11 -11 -11 -12 -12 -12 -12 -12 -11 -11 -11 -11 -12 -12 -11 -11 -11 -11 -11 -11 -11 -11 -11 -11 -10 -10 -10 -11 -11 -11
-11 -11 -11 -10 -11 -11 -11 -11 -11 -11 -11 -11 -11 -11 -11 -11 -12 -12 -12 -12 -12 -12 -12 -12 -12 -12 -12 -12 -12 -12 -12 -11 -11 -11 -11 -11 -11 -11 -11 -11 -11 -11 -11
-11 -11 -10 -10 -11 -11 -11 -11 -11 -11 -11 -11 -11 -11 -12 -12 -12 -13 -13 -13 -12 -12 -12 -12 -12 -12 -12 -12 -12 -12 -12 -12 -12 -12 -12 -12 -12 -11 -11 -12 -12 -12 -12
-11 -10 -10 -11 -11 -11 -11 -11 -11 -11 -11 -11 -12 -12 -12 -12 -12 -14 -14 -14 -13 -13 -12 -12 -12 -12 -12 -12 -12 -12 -12 -12 -12 -12 -12 -12 -12 -12 -12 -12 -12 -12 -12
-11 -11 -11 -11 -11 -11 -11 -11 -12 -12 -11 -11 -12 -12 -12 -12 -14 -15 -15 -14 -13 -13 -13 -13 -13 -13 -12 -12 -13 -12 -13 -13 -13 -13 -13 -13 -12 -12 -12 -12 -12 -12 -12
-11 -11 -11 -11 -11 -11 -11 -11 -12 -11 -12 -12 -12 -12 -11 -12 -15 -15 -15 -14 -13 -13 -13 -13 -13 -13 -13 -13 -13 -13 -13 -13 -13 -13 -13 -13 -13 -12 -12 -12 -12 -12 -12
-11 -11 -10 -11 -11 -11 -11 -11 -11 -12 -12 -12 -12 -12 -12 -15 -15 -16 -15 -15 -14 -14 -13 -13 -13 -13 -13 -12 -12 -13 -13 -13 -13 -13 -13 -12 -12 -12 -12 -12 -12 -12 -12
-12 -12 -9 -10 -10 -10 -11 -11 -11 -12 -12 -12 -12 -12 -14 -16 -16 -15 -15 -15 -14 -15 -14 -13 -13 -13 -12 -13 -13 -13 -13 -13 -13 -13 -12 -12 -12 -13 -13 -13 -13 -13 -13
-12 -12 -11 -10 -11 -10 -10 -10 -11 -11 -11 -12 -12 -14 -17 -16 -16 -15 -15 -15 -15 -14 -14 -13 -13 -13 -13 -13 -14 -14 -13 -13 -13 -13 -13 -13 -13 -13 -13 -13 -13 -13 -13
-11 -11 -12 -11 -12 -11 -11 -11 -12 -11 -12 -13 -14 -16 -16 -16 -15 -15 -15 -15 -15 -14 -14 -14 -13 -13 -13 -14 -14 -14 -14 -13 -13 -13 -13 -13 -13 -13 -13 -14 -14 -14 -14
-12 -12 -11 -11 -12 -12 -12 -12 -12 -13 -13 -14 -15 -17 -17 -16 -15 -15 -14 -14 -14 -14 -14 -14 -13 -14 -14 -14 -14 -14 -14 -14 -14 -14 -13 -13 -13 -14 -14 -14 -15 -15 -15
-12 -12 -12 -12 -12 -12 -12 -12 -12 -13 -15 -15 -16 -16 -16 -16 -15 -14 -14 -15 -15 -14 -14 -14 -14 -14 -14 -14 -14 -14 -14 -14 -14 -14 -14 -14 -14 -14 -14 -14 -15 -15 -15
-12 -12 -12 -12 -12 -13 -13 -12 -12 -15 -17 -17 -16 -16 -16 -15 -15 -15 -15 -15 -15 -14 -14 -14 -14 -14 -14 -14 -14 -15 -15 -15 -15 -15 -14 -14 -14 -14 -15 -15 -15 -15 -15
-12 -13 -13 -13 -12 -14 -16 -16 -16 -16 -16 -16 -16 -16 -16 -15 -15 -15 -15 -15 -14 -14 -14 -14 -14 -15 -15 -15 -15 -15 -15 -15 -15 -15 -15 -15 -15 -15 -15 -15 -16 -16 -16
-14 -15 -16 -16 -16 -16 -16 -16 -16 -16 -15 -15 -15 -15 -15 -15 -15 -15 -15 -15 -14 -14 -14 -14 -14 -15 -14 -15 -15 -15 -15 -15 -15 -15 -15 -16 -16 -16 -16 -16 -16 -16 -16
-16 -15 -16 -16 -15 -15 -15 -15 -15 -15 -15 -14 -15 -15 -15 -15 -15 -15 -15 -15 -14 -14 -15 -15 -15 -15 -15 -15 -15 -15 -15 -16 -16 -16 -16 -17 -17 -17 -17 -17 -17 -17 -17
-15 -15 -15 -15 -15 -15 -15 -15 -15 -15 -14 -15 -15 -15 -15 -15 -15 -15 -15 -15 -15 -15 -15 -15 -15 -15 -15 -15 -15 -15 -16 -16 -16 -17 -17 -17 -17 -17 -17 -18 -18 -18 -18
-15 -15 -15 -15 -16 -15 -15 -15 -15 -15 -14 -14 -15 -15 -15 -15 -15 -15 -15 -15 -15 -15 -15 -15 -15 -15 -15 -16 -16 -16 -17 -17 -17 -17 -17 -18 -18 -18 -18 -18 -18 -19 -19
-15 -15 -15 -15 -15 -15 -15 -15 -15 -15 -15 -15 -15 -15 -15 -15 -15 -15 -15 -15 -15 -15 -15 -15 -15 -16 -16 -16 -17 -17 -17 -18 -18 -18 -18 -19 -19 -19 -19 -19 -19 -19 -19
-15 -15 -15 -14 -15 -15 -15 -15 -15 -15 -15 -16 -15 -15 -15 -15 -15 -15 -15 -15 -15 -15 -15 -16 -16 -16 -16 -17 -17 -18 -18 -18 -19 -19 -19 -20 -19 -19 -19 -19 -19 -19 -19
-15 -15 -15 -15 -15 -15 -15 -16 -16 -16 -16 -15 -15 -15 -15 -15 -15 -15 -15 -15 -15 -15 -16 -16 -16 -16 -17 -17 -18 -18 -19 -19 -19 -20 -20 -20 -20 -20 -20 -20 -20 -20 -20
-16 -16 -16 -15 -16 -16 -16 -16 -15 -15 -15 -15 -15 -15 -15 -15 -15 -15 -15 -15 -16 -16 -16 -16 -17 -17 -17 -18 -19 -19 -19 -19 -19 -20 -20 -21 -21 -21 -21 -21 -20 -20 -20
-15 -15 -15 -15 -15 -15 -15 -15 -15 -15 -15 -15 -15 -15 -15 -15 -15 -15 -15 -16 -16 -16 -17 -17 -17 -18 -18 -19 -19 -19 -19 -19 -19 -19 -20 -20 -21 -21 -21 -21 -21 -21 -22
-16 -15 -15 -15 -15 -15 -15 -15 -15 -15 -15 -15 -16 -15 -15 -15 -15 -16 -16 -17 -17 -18 -18 -18 -18 -18 -19 -20 -20 -20 -20 -20 -20 -20 -20 -20 -20 -20 -20 -21 -22 -22 -23
-16 -16 -15 -15 -15 -15 -15 -15 -15 -16 -16 -16 -16 -15 -15 -15 -16 -16 -17 -18 -18 -19 -18 -19 -19 -19 -19 -19 -20 -19 -20 -20 -20 -21 -20 -20 -21 -21 -21 -22 -23 -23 -24
Height
5829 5832 5834 5836 5836 5835 5834 5834 5834 5835 5835 5835 5835 5834 5835 5835 5836 5838 5838 5839 5840 5841 5840 5840 5840 5839 5837 5836 5835 5835 5834 5833 5832 5831 5830 5830 5829 5828 5827 5826 5825 5824 5823
5825 5827 5829 5830 5831 5831 5831 5831 5832 5832 5832 5832 5831 5831 5832 5833 5834 5834 5836 5837 5838 5839 5839 5838 5838 5836 5836 5835 5834 5833 5832 5830 5830 5830 5829 5829 5828 5826 5826 5824 5823 5822 5821
5821 5821 5822 5824 5824 5824 5825 5826 5828 5826 5828 5828 5828 5827 5829 5829 5830 5831 5833 5835 5837 5837 5836 5836 5835 5834 5834 5833 5832 5830 5828 5828 5828 5828 5828 5827 5825 5824 5824 5822 5821 5820 5819
5816 5817 5818 5818 5818 5818 5819 5820 5823 5822 5823 5823 5823 5822 5823 5825 5826 5827 5830 5832 5834 5833 5834 5834 5833 5833 5831 5831 5830 5829 5827 5826 5825 5825 5825 5824 5823 5822 5821 5821 5819 5818 5816
5811 5812 5811 5809 5809 5811 5813 5815 5816 5815 5817 5818 5818 5819 5819 5821 5822 5824 5826 5827 5830 5831 5831 5831 5830 5829 5829 5828 5827 5826 5825 5825 5823 5822 5822 5821 5821 5820 5818 5817 5816 5814 5813
5804 5804 5805 5803 5802 5803 5806 5808 5808 5809 5810 5811 5813 5814 5816 5817 5818 5819 5821 5824 5827 5828 5827 5827 5827 5826 5824 5825 5824 5824 5822 5821 5820 5820 5818 5816 5816 5816 5815 5814 5812 5811 5810
5799 5800 5797 5794 5794 5796 5797 5798 5802 5803 5805 5806 5808 5809 5812 5813 5814 5816 5819 5821 5824 5824 5824 5825 5824 5823 5821 5822 5820 5819 5818 5817 5817 5815 5814 5812 5811 5810 5809 5808 5807 5805 5804
5794 5793 5785 5789 5783 5787 5789 5792 5794 5798 5800 5802 5803 5805 5806 5808 5810 5814 5817 5818 5819 5819 5821 5821 5820 5820 5819 5817 5816 5816 5815 5813 5813 5812 5810 5807 5805 5803 5801 5800 5799 5799 5796
5791 5792 5759 5770 5781 5782 5788 5787 5790 5793 5796 5797 5798 5799 5801 5806 5809 5814 5817 5817 5816 5816 5818 5816 5815 5815 5815 5813 5812 5811 5811 5810 5808 5808 5806 5804 5801 5798 5796 5793 5791 5790 5789
5787 5784 5781 5780 5776 5779 5783 5786 5788 5789 5791 5792 5795 5797 5801 5807 5811 5813 5812 5811 5813 5815 5813 5811 5812 5813 5810 5808 5807 5806 5805 5804 5803 5801 5799 5797 5795 5793 5790 5787 5784 5783 5781
5783 5783 5782 5778 5778 5781 5785 5786 5783 5783 5785 5787 5790 5793 5799 5805 5808 5810 5809 5811 5811 5811 5812 5812 5810 5806 5805 5804 5803 5804 5801 5798 5796 5794 5793 5791 5789 5785 5783 5780 5777 5776 5774
5777 5777 5780 5779 5780 5783 5782 5781 5780 5781 5784 5788 5791 5794 5799 5802 5804 5806 5807 5808 5808 5807 5808 5806 5805 5804 5802 5801 5800 5798 5798 5795 5792 5789 5787 5784 5782 5779 5776 5773 5770 5768 5766
5772 5770 5772 5774 5776 5778 5779 5778 5779 5780 5783 5787 5789 5793 5797 5799 5802 5804 5805 5804 5805 5805 5804 5802 5802 5800 5799 5798 5795 5794 5793 5790 5787 5784 5782 5779 5774 5772 5769 5766 5764 5761 5758
5768 5767 5770 5770 5772 5773 5773 5775 5776 5779 5783 5787 5790 5793 5796 5799 5800 5800 5802 5802 5801 5800 5799 5799 5797 5796 5795 5794 5791 5789 5787 5784 5780 5777 5774 5770 5767 5766 5763 5760 5759 5755 5752
5765 5766 5765 5767 5767 5768 5772 5775 5780 5783 5785 5788 5788 5793 5796 5797 5800 5799 5797 5796 5798 5797 5794 5793 5793 5791 5791 5789 5785 5783 5780 5777 5772 5769 5766 5763 5761 5758 5755 5752 5749 5747 5744
5761 5763 5765 5768 5771 5774 5777 5781 5784 5786 5787 5791 5788 5792 5793 5796 5797 5794 5794 5794 5793 5792 5790 5790 5788 5787 5786 5782 5779 5775 5771 5767 5763 5760 5757 5754 5751 5748 5745 5742 5739 5737 5734
5763 5767 5769 5773 5775 5779 5781 5783 5782 5784 5788 5789 5789 5790 5790 5792 5791 5789 5791 5790 5789 5788 5788 5785 5782 5782 5779 5774 5770 5766 5763 5758 5754 5751 5747 5744 5740 5737 5734 5731 5728 5725 5722
5764 5767 5771 5773 5775 5779 5782 5782 5782 5785 5786 5787 5787 5786 5787 5788 5788 5787 5788 5787 5785 5783 5781 5778 5777 5774 5770 5766 5761 5757 5752 5747 5743 5740 5736 5732 5729 5726 5722 5719 5716 5712 5709
5767 5768 5772 5775 5777 5779 5780 5779 5780 5782 5784 5784 5783 5782 5784 5785 5784 5784 5783 5783 5779 5776 5773 5772 5769 5764 5760 5756 5751 5746 5742 5738 5734 5730 5725 5721 5717 5714 5710 5706 5702 5699 5698
5769 5771 5773 5775 5777 5778 5777 5776 5778 5779 5781 5779 5780 5780 5781 5782 5780 5781 5778 5774 5772 5770 5768 5763 5759 5755 5751 5745 5741 5736 5733 5729 5724 5719 5714 5710 5706 5701 5696 5692 5689 5687 5684
5771 5772 5772 5773 5773 5774 5775 5775 5775 5776 5775 5775 5777 5776 5777 5776 5776 5773 5771 5770 5766 5763 5758 5753 5749 5745 5740 5735 5731 5727 5723 5718 5712 5707 5701 5697 5693 5687 5682 5678 5675 5672 5668
5768 5770 5770 5771 5772 5772 5772 5772 5771 5771 5771 5771 5772 5773 5773 5772 5770 5768 5765 5761 5756 5752 5748 5744 5739 5733 5728 5724 5720 5716 5711 5707 5700 5694 5689 5684 5678 5672 5667 5663 5659 5656 5652
5765 5766 5766 5767 5768 5769 5768 5768 5768 5767 5767 5769 5770 5769 5768 5766 5764 5761 5755 5751 5747 5743 5738 5733 5728 5723 5718 5714 5709 5703 5696 5692 5686 5681 5674 5669 5663 5658 5652 5647 5643 5637 5633
5764 5764 5765 5766 5766 5765 5765 5766 5766 5765 5765 5766 5765 5764 5761 5758 5755 5751 5746 5742 5738 5733 5728 5724 5719 5713 5708 5702 5697 5691 5684 5678 5671 5668 5661 5655 5649 5642 5634 5629 5623 5616 5610
5760 5761 5761 5762 5762 5763 5762 5762 5763 5762 5761 5759 5757 5755 5753 5750 5745 5741 5738 5733 5729 5724 5719 5712 5706 5702 5697 5691 5685 5679 5672 5665 5657 5651 5646 5639 5633 5626 5617 5605 5600 5594 5586
5756 5757 5757 5757 5758 5758 5758 5757 5757 5756 5754 5752 5751 5748 5744 5740 5736 5733 5729 5724 5719 5714 5707 5701 5696 5692 5686 5680 5672 5665 5657 5649 5642 5635 5630 5624 5617 5610 5599 5587 5577 5569 5561
Wind_Speed
31 29 28 23 25 25 26 28 27 24 26 29 25 26 28 26 24 23 20 17 13 14 14 14 14 14 15 15 15 15 14 14 14 14 14 13 12 11 11 10 11 12 12
30 32 27 27 27 27 26 27 25 22 22 25 27 28 27 27 23 18 21 14 15 14 12 13 14 15 16 17 16 16 15 14 14 14 14 14 14 12 12 11 12 12 13
31 29 29 29 30 31 29 29 27 24 28 27 28 30 30 24 24 17 18 12 13 12 12 14 16 15 17 17 17 17 17 17 18 18 17 16 16 15 14 13 12 15 15
30 30 31 31 33 35 32 29 28 37 31 28 29 31 28 24 26 16 14 12 14 12 15 16 16 16 16 17 17 18 18 19 19 20 21 20 20 19 17 17 15 15 17
27 30 33 36 37 36 35 32 29 34 31 28 31 30 28 25 25 13 17 12 14 17 15 17 17 17 19 19 20 21 19 20 19 20 20 21 24 26 26 26 27 28 28
31 35 36 36 38 36 34 31 34 30 30 29 30 30 31 29 16 17 7 13 14 16 17 20 18 18 19 22 21 22 19 19 19 21 21 22 26 28 29 31 31 30 28
31 30 35 41 40 38 32 35 33 37 33 31 32 32 35 33 19 9 11 16 17 18 21 20 19 20 22 25 24 24 23 21 22 21 22 21 21 24 26 30 31 30 31
30 30 37 43 41 34 33 31 34 37 34 37 36 37 32 15 12 12 18 15 18 21 19 16 18 22 25 28 29 26 22 18 17 19 21 23 25 27 28 29 31 34 35
31 24 38 50 43 45 41 40 30 35 38 41 42 34 16 9 6 8 14 17 20 14 14 19 22 25 29 28 23 21 21 20 21 24 23 27 28 29 29 30 29 31 32
29 28 33 42 49 45 56 39 33 36 41 41 44 17 9 7 7 11 14 17 13 14 18 20 25 28 26 23 23 23 25 27 27 28 26 27 28 30 31 33 33 35 36
32 35 28 21 16 32 25 28 31 44 43 34 26 18 16 9 7 10 12 13 15 18 20 26 29 23 23 22 22 26 27 27 30 29 31 33 33 34 35 35 36 38 37
29 29 27 28 22 22 30 28 33 38 29 19 16 16 12 10 9 11 12 15 19 21 24 25 25 23 24 25 26 28 26 27 30 33 36 38 40 40 41 40 39 39 40
21 25 23 21 24 25 22 29 31 25 17 17 17 17 11 9 11 13 15 23 22 21 25 21 20 21 24 25 23 25 30 32 34 36 39 40 41 42 42 42 42 42 44
15 25 22 23 26 23 27 37 35 20 19 18 13 10 11 17 15 8 13 14 18 17 22 24 27 28 27 27 28 30 34 36 36 37 40 42 43 45 44 42 42 40 41
13 19 24 17 15 16 15 15 15 13 13 13 12 11 15 10 11 12 13 14 18 22 21 19 18 19 26 30 32 33 36 39 41 42 44 45 45 45 44 43 42 42 42
11 15 15 16 17 14 13 10 8 7 10 10 9 9 9 11 15 15 16 17 16 16 18 20 22 26 31 32 36 39 41 43 44 45 46 46 46 45 45 45 44 43 43
19 17 15 16 13 9 10 10 9 7 7 10 8 9 11 13 15 14 14 13 16 19 22 24 27 32 34 37 40 43 44 45 46 47 48 48 47 47 46 45 44 44 43
15 14 14 14 14 13 11 9 8 8 9 10 11 10 12 14 12 12 14 17 21 23 26 29 33 36 38 41 43 46 47 48 50 50 50 49 49 48 46 45 46 45 41
18 18 16 16 16 13 10 7 8 9 11 10 10 11 14 12 12 15 18 23 25 28 32 36 39 40 43 45 46 47 48 50 52 52 51 51 51 50 48 48 48 42 40
14 13 14 12 10 8 7 7 7 8 9 8 10 9 10 13 16 20 23 26 30 34 38 40 43 44 45 45 47 48 50 52 52 52 51 51 50 52 53 53 47 46 48
9 9 8 8 8 8 9 9 8 8 7 8 8 10 15 18 22 25 28 31 35 39 42 44 46 46 47 48 50 51 52 53 53 51 50 51 54 56 58 55 52 53 56
13 13 12 10 9 9 10 9 8 8 7 9 11 16 21 24 26 30 33 36 39 43 45 47 48 49 49 49 51 53 54 56 55 53 54 56 58 59 61 59 59 61 65
10 10 11 11 10 10 10 10 9 8 9 13 18 22 26 28 31 34 38 40 43 46 49 50 50 49 49 50 56 58 58 57 55 56 60 61 61 61 61 63 65 68 70
11 13 11 10 12 12 10 12 12 11 14 19 21 26 30 33 36 39 42 44 46 49 49 50 48 48 47 53 58 64 61 60 61 62 62 64 64 64 67 69 72 75 76
14 15 15 14 13 13 13 12 14 16 19 21 24 31 36 39 42 45 45 45 47 50 49 51 48 52 54 57 66 68 65 65 66 67 67 67 68 71 74 79 81 82 83
20 17 17 15 15 15 15 14 16 19 21 22 29 38 42 45 46 48 44 49 50 53 53 53 53 58 60 65 70 69 69 70 71 71 71 72 75 79 82 85 85 85 84
Wind_Direction
247 254 259 263 269 272 275 279 284 294 294 298 305 305 306 306 311 313 317 316 280 271 275 286 292 296 303 298 295 294 297 299 298 297 300 303 302 304 301 305 303 305 310
253 259 256 255 264 269 279 285 288 292 293 289 294 295 301 303 307 299 311 299 260 268 280 288 295 305 307 306 305 301 301 301 299 299 299 292 287 287 295 299 305 311 316
247 255 249 257 266 273 276 285 276 273 285 288 287 289 296 299 298 284 297 278 262 270 280 286 291 306 311 318 313 308 306 300 294 293 294 290 287 288 286 292 304 306 309
252 250 257 264 267 269 276 278 272 272 278 279 282 287 287 295 289 275 285 256 254 271 273 280 294 302 311 312 308 305 302 298 299 298 297 293 291 288 290 295 298 304 307
250 253 255 260 266 272 272 275 276 269 269 271 274 283 275 281 270 262 263 235 250 261 267 281 292 302 304 306 306 309 310 308 303 301 301 297 292 291 294 293 300 301 298
247 248 260 265 266 267 271 268 261 259 268 265 277 281 265 273 257 266 239 246 247 263 269 277 287 294 297 304 305 306 301 297 296 296 290 292 293 293 293 295 294 295 294
254 262 265 265 265 265 268 258 256 250 268 266 267 270 262 264 231 243 244 247 246 254 268 279 293 300 305 305 309 308 306 301 298 295 294 296 300 302 301 299 297 295 288
249 269 270 259 237 252 269 260 240 244 252 267 264 261 247 232 234 224 239 244 248 258 271 286 289 294 302 305 304 303 301 297 300 303 302 295 297 300 297 291 291 289 289
253 265 194 201 223 216 257 247 242 241 250 263 253 240 201 155 140 237 233 246 254 267 288 289 302 306 297 296 297 301 301 301 299 297 298 295 299 300 300 304 304 304 303
253 256 267 240 252 234 231 236 258 261 254 255 245 215 141 169 199 228 235 242 259 287 291 298 292 292 302 294 294 299 304 303 305 305 306 305 308 309 310 309 309 308 308
254 251 248 209 276 233 253 272 269 251 240 230 214 164 151 173 205 234 244 261 283 301 299 290 285 287 291 293 300 308 309 308 309 309 307 308 309 307 305 306 306 305 305
262 263 262 275 288 282 262 270 263 241 237 201 167 146 168 189 222 268 272 283 280 281 276 279 281 288 291 289 297 304 302 305 305 307 307 307 305 305 306 308 307 307 305
265 266 263 258 250 260 262 265 268 234 159 144 150 156 172 202 227 245 261 256 261 280 283 285 294 300 305 303 304 302 303 304 303 304 305 304 305 305 305 305 304 302 301
259 248 249 256 264 257 242 249 248 171 152 147 136 159 197 224 224 252 274 278 271 285 283 276 288 294 302 297 301 301 301 302 306 307 307 306 304 301 299 297 295 297 298
244 239 242 239 226 155 122 125 117 112 123 150 156 190 214 219 251 282 289 287 282 293 289 287 299 301 296 300 303 304 305 304 305 305 303 301 299 296 294 292 292 293 293
164 131 93 90 90 88 88 99 122 150 178 193 177 210 229 253 275 291 291 285 290 295 303 303 306 302 301 301 302 302 302 303 303 301 299 296 294 293 291 291 290 290 289
109 104 115 118 125 155 169 174 171 179 209 216 232 230 259 272 287 289 283 287 293 296 295 297 299 296 298 302 301 300 301 300 298 297 297 296 295 293 292 291 291 291 289
130 145 164 174 170 173 180 182 183 202 226 243 258 276 283 284 280 280 286 289 290 291 293 295 295 299 302 300 301 302 302 300 300 299 298 296 295 295 294 294 293 293 288
157 161 171 175 179 186 191 192 210 231 250 262 270 274 277 275 280 283 284 284 290 297 300 299 302 303 303 302 302 302 301 301 300 299 298 298 296 295 295 296 296 290 289
162 168 173 179 177 191 198 219 246 257 262 278 276 276 273 273 280 281 287 297 299 300 300 303 306 304 303 303 303 303 303 302 301 300 300 299 298 297 298 298 294 290 292
165 165 172 190 209 222 230 241 252 260 274 275 269 276 281 285 287 296 299 299 302 303 305 306 304 303 303 305 307 306 304 303 301 300 302 301 301 302 300 296 292 292 292
175 185 189 206 223 231 240 255 261 269 270 274 281 280 281 291 298 298 300 302 304 305 305 304 305 305 306 307 306 307 306 305 298 297 300 303 304 303 300 296 294 293 292
186 197 206 215 229 229 240 254 250 255 261 270 275 283 291 296 298 300 304 306 308 309 309 306 305 305 304 301 310 310 309 307 304 297 302 304 303 301 296 294 293 292 292
226 227 231 229 233 238 238 245 253 258 267 273 276 293 297 302 305 306 308 311 309 311 309 306 305 309 304 302 310 313 308 305 303 302 301 299 298 297 296 295 294 295 296
247 247 251 255 245 235 242 254 267 272 278 287 279 300 304 306 308 308 309 312 310 308 303 310 309 308 305 305 309 309 305 304 306 305 304 301 299 299 298 300 300 300 299
250 247 249 250 252 246 254 270 284 286 292 299 289 301 306 305 305 306 307 310 307 308 309 311 311 304 304 304 307 307 308 308 306 305 303 302 301 301 301 301 304 302 302